Back to catalog

STARLINK-3077

AliveCommunicationsVLEO
NORAD 49133·PAYLOAD·🇺🇸 United States

Launched Sep 14, 2021 from Vandenberg Space Force Base

Loading…

Next Passes (next 24 hours)

TLE

FreshSource: CelesTrak SupGP

Epoch: Sep 14, 2026, 14:07 UTC

1 49133C 21082D   26257.58868056  .00079222  00000+0  66436-2 0  2576
2 49133  70.0014 178.1732 0002946 264.7034 108.5587 14.98264999    16

Track STARLINK-3077 in real time with AllMySat

Download on the App Store